User: anonymous   Login
Location: Heilwood
(40.6210°N, 78.9150°W)
Time: 10:52:13
(UTC-05:00)
Language:

BREEZE-M DEB (TANK) - Orbit

View from above orbital plane
View from above orbital plane
View from above satellite
View from above satellite

Ground track
Ground track

The orbit data is extracted from the following two-line orbital elements,

1 29649U 06056B   14353.44843955  .00003304  00000-0  60130-3 0   742
2 29649 049.4749 176.7868 5403622 315.4015 016.2909 04.95636651142406
Epoch (UTC): 19 December 2014 10:45:45
Eccentricity: 0.5403622
inclination: 49.4749°
perigee height: 301 km
apogee height: 16004 km
right ascension of ascending node: 176.7868°
argument of perigee: 315.4015°
revolutions per day: 4.95636651
mean anomaly at epoch: 16.2909°
orbit number at epoch: 14240

The dashed part of the orbit path shows where the satellite is in the earth's shadow,  

DLR